Cosmos 1758 - Orbit

View from above orbital plane
View from above orbital plane
View from above satellite
View from above satellite

Ground track
Ground track

The orbit data is extracted from the following two-line orbital elements,

1 16791U 86046A   13141.17139702  .00002563  00000-0  20800-3 0  7108
2 16791 082.4750 037.1210 0020208 096.4446 263.9079 14.99104745462261
Epoch (UTC): 21 May 2013 04:06:48
Eccentricity: 0.0020208
inclination: 82.4750°
perigee height: 555 km
apogee height: 584 km
right ascension of ascending node: 37.1210°
argument of perigee: 96.4446°
revolutions per day: 14.99104745
mean anomaly at epoch: 263.9079°
orbit number at epoch: 46226

The dashed part of the orbit path shows where the satellite is in the earth's shadow,  

Developed and maintained by Chris Peat, Heavens-Above GmbH. Please read the updated FAQ before sending e-mail. Imprint. DLR